Miscellaneous Local Product
Issued by NWS Hastings, NE

Home | Current Version | Previous Version | Text Only | Print | Product List | Glossary Off
Versions: 1 2 3 4 5 6 7 8 9 10 11 12 13 14 15 16 17 18 19 20 21 22 23 24 25 26 27 28 29 30 31 32 33 34 35 36 37 38 39 40 41 42 43 44 45 46 47 48 49 50

710
AXUS43 KGID 201402
MISGRI

GID CWA HOURLY WEATHER ROUNDUP
NATIONAL WEATHER SERVICE HASTINGS NE
800 AM CST TUE FEB 20 2018

NOTE: "FAIR" INDICATES FEW OR NO CLOUDS BELOW 12,000 FEET WITH NO
SIGNIFICANT WEATHER AND/OR OBSTRUCTIONS TO VISIBILITY.

...SOUTH CENTRAL NEBRASKA...

CITY           SKY/WX    TMP DP  RH WIND       PRES   REMARKS
GRAND ISLAND   CLOUDY     8   1  73 NW17      30.08R WCI -10
KEARNEY        CLOUDY     7   0  73 N20G26    30.06F WCI -13
HASTINGS       CLOUDY     9   1  70 NW20      30.06R WCI -10
ORD            PTCLDY     5  -2  72 NW12G25   30.06R WCI -11
YORK           CLOUDY    12   9  85 NW23G29   30.02F WCI  -7
AURORA         CLOUDY     8   2  73 NW20      30.06R WCI -11
LEXINGTON      PTCLDY     8  -1  69 NW15      30.08R WCI -10
HOLDREGE       CLOUDY     8   2  73 NW12G22   30.06R WCI  -7
HEBRON         CLOUDY    16  10  79 N13G18    30.06R WCI   2

...NEBRASKA PANHANDLE...

CITY           SKY/WX    TMP DP  RH WIND       PRES   REMARKS
CHADRON        CLEAR    -16 -21  78 CALM      30.07R
ALLIANCE       CLEAR    -23 -26  86 W12       29.97R WCI -46
SCOTTSBLUFF    CLEAR    -10 -15  78 NW7       30.00R WCI -25
SIDNEY         CLEAR     -7 -12  79 NW13      29.96R WCI -27

...WESTERN AND NORTH CENTRAL NEBRASKA...

CITY           SKY/WX    TMP DP  RH WIND       PRES   REMARKS
VALENTINE      LGT SNOW   2  -5  72 NW12      30.05R WCI -15
AINSWORTH      LGT SNOW   2  -1  84 NW18      30.01S VSB 1   WCI -18
ONEILL         PTCLDY     3  -1  82 NW15      30.06R WCI -16
BROKEN BOW     PTCLDY     3  -5  69 NW12      30.03R WCI -13
IMPERIAL       MOCLDY     1  -4  79 NW13      30.03R WCI -17
NORTH PLATTE   PTCLDY     2  -6  69 W13       30.05R WCI -15
MCCOOK         PTCLDY     6  -1  73 NW14G22   30.09R WCI -11

...EASTERN NEBRASKA...

CITY           SKY/WX    TMP DP  RH WIND       PRES   REMARKS
NORFOLK        CLOUDY     6   1  80 NW14      30.05R WCI -11
SO SIOUX CITY  CLOUDY    11   6  81 NW14      30.03R WCI  -5
TEKAMAH        CLOUDY    14   9  80 NW21G28   30.03R WCI  -4
COLUMBUS       CLOUDY    10   4  76 NW21      30.05R WCI  -9
ALBION         CLOUDY     6   0  76 NW18      30.05R WCI -13
OMAHA EPPLEY   CLOUDY    19  14  81 NW16G26   30.00R WCI   4
MILLARD        CLOUDY    19  14  80 NW15G23   30.01R WCI   5
LINCOLN        FLURRIES  15   9  76 NW18      30.06R WCI  -2
NEBRASKA CITY  CLOUDY    20  19  96 NW15      30.00R WCI   6
BEATRICE       CLOUDY    19  15  83 NW20      30.04R WCI   3
FALLS CITY     MIX PCPN  22  19  89 NW13G22   30.01R WCI  10

...NORTHERN KANSAS...

CITY           SKY/WX    TMP DP  RH WIND       PRES   REMARKS
GOODLAND       CLEAR      1  -5  75 MISG      30.00R
HILL CITY      CLOUDY    12   3  67 N16       30.09R WCI  -5
NORTON         CLOUDY    10   0  61 N13       30.07R WCI  -5
PHILLIPSBURG   MOCLDY    14   3  62 NW14      30.10R WCI  -1
SMITH CENTER   PTCLDY    10   3  72 NW16      30.10R WCI  -7
BELOIT         CLOUDY    16  10  79 NW14G20   30.08R WCI   1
RUSSELL        CLOUDY    17  11  77 NW22      30.05R WCI   0
CONCORDIA      CLOUDY    16  12  84 NW16G24   30.05R WCI   1
SALINA         CLOUDY    20  17  88 NW23G30   30.05R WCI   3
TOPEKA         FRZ RAIN  29  28  96 NW10      29.99R FOG     WCI  20



USA.gov is the U.S. government's official web portal to all federal, state and local government web resources and services.